Terminal Aerodrome Forecast
Issued by NWS Charleston, WV

Current Version | Previous Version | Text Only | Print | Product List | Glossary Off
Versions: 1 2 3 4 5 6 7 8 9 10 11 12 13 14 15 16 17 18 19 20 21 22 23 24 25

000
FTUS41 KRLX 040904 AAB
TAFEKN
TAF AMD
KEKN 040904Z 0409/0506 00000KT 1/4SM FG VV001
      TEMPO 0409/0413 2SM BR SCT001 BKN100
     FM041300 00000KT 4SM BR BKN035
     FM041400 00000KT P6SM VCTS BKN035CB
     FM050300 00000KT 4SM BR BKN040
     FM050500 00000KT 1 1/2SM BR BKN040=

USA.gov is the U.S. government's official web portal to all federal, state and local government web resources and services.